P/1999 WJ7 ( Korlevic ) 2010

Japanese version
Home page
Total 6,336 html files since Dec. 4, 1995
Updated on August 10, 2007

---------------------------------------------------------------------

* Profile

* Orbital Elements

The following orbital elements are taken from MPC 59598:

Epoch 2010 Feb. 13.0 TT = JDT 2455240.5
T 2010 Feb. 8.5594 TT                                   MPC
q   3.182170             (2000.0)            P               Q
n   0.0984022      Peri.  154.5500      +0.0846119      -0.9952277
a   4.646575       Node   290.5651      +0.9050888      +0.0971668
e   0.315158       Incl.    2.9758      +0.4167195      -0.0089662
P  10.0
From 206 observations 1999 Nov. 3-2002 Apr. 12, mean residual 0".7.

* Finding Charts

* Magnitudes Graph

        m1 = 15.5 + 5 log d + 5.0 log r

        * Gray curve is:  m1 = 12.0 + 5 log d + 5.0 log r

---------------------------------------------------------------------

The orbital elements are published at the MPC Ephemerides and Orbital Elements.
The charts are made with StellaNavigator Ver.2.0 for Windows (AstroArts / ASCII).
The magnitudes graphs are made with Comet for Windows.

---------------------------------------------------------------------

Copyright(C) 1995-2008 Seiichi Yoshida (comet@aerith.net). All rights reserved.